Regional Weather Roundup
Issued by NWS Newport/Morehead, NC

Current Version | Previous Version | Text Only | Print | Product List | Glossary Off
Versions: 1 2 3 4 5 6 7 8 9 10 11 12 13 14 15 16 17 18 19 20 21 22 23 24 25 26 27 28 29 30 31 32 33 34 35 36 37 38 39 40 41 42 43 44 45 46 47 48 49 50
000 ASUS42 KMHX 031513 RWRMHX WEATHER ROUNDUP FOR EASTERN NORTH CAROLINA NATIONAL WEATHER SERVICE NEWPORT/MOREHEAD CITY NC 1100 AM EDT FRI JUL 03 2015 NOTE: "FAIR" INDICATES FEW OR NO CLOUDS BELOW 12,000 FEET WITH NO SIGNIFICANT WEATHER AND/OR OBSTRUCTIONS TO VISIBILITY NCZ015>017-031-032-045>047-102-103-031600- NORTH COAST CITY SKY/WX TMP DP RH WIND PRES REMARKS EDENTON N/A 78 70 77 CALM 29.99R ELIZABETH CITY PTSUNNY 78 69 73 E5 29.99R KITTY HAWK CLOUDY 77 71 80 E3 29.98R MANTEO CLOUDY 76 72 85 NE6 29.99R $$ NCZ045>047-081-094-103-104-031600- CENTRAL COAST CITY SKY/WX TMP DP RH WIND PRES REMARKS FRISCO PTSUNNY 79 71 76 SW9 29.99S SWANQUARTER N/A 81 N/A N/A SW3G9 29.97R $$ NCZ095-097-098-100-101-031600- SOUTHERN COAST CITY SKY/WX TMP DP RH WIND PRES REMARKS BEAUFORT SUNNY 80 70 71 W13 30.00S CEDAR ISLAND N/A 79 N/A N/A SW9G15 30.03S JACKSONVILLE CLOUDY 77 70 79 S7 29.98F PINEY ISLAND PTSUNNY N/A N/A N/A SW13 30.00R WILMINGTON PTSUNNY 77 71 82 W10 30.00R $$ NCZ011>013-027>030-043-044-078>080-089-090>093-098-031600- COASTAL PLAIN CITY SKY/WX TMP DP RH WIND PRES REMARKS AHOSKIE MOSUNNY 76 69 78 E3 29.99R CLINTON N/A 74 71 92 S3 30.00R ELIZABETHTOWN CLOUDY 73 72 95 SW5 29.99S GOLDSBORO CLOUDY 76 69 80 SE6 29.96S GREENVILLE MOSUNNY 81 72 74 S5 30.00S HAVELOCK PTSUNNY 79 68 69 W7 30.01S KENANSVILLE PTSUNNY 76 69 78 SW3 30.00R KINSTON PTSUNNY 79 70 73 S3 29.99F NEW BERN CLOUDY 76 69 79 SW6 30.01S RICHLANDS CLOUDY 75 68 78 S6 29.99R ROCKY MOUNT PTSUNNY 81 71 71 VRB7 29.97F WASHINGTON MOSUNNY 76 70 82 CALM 29.99F WHITEVILLE CLOUDY 75 71 86 SW9 30.00R $$ AMZ130-135-150-152-154-156-158-170-250-252-270-ANZ085-086-088-633-658-670-031600- MARINE OBSERVATIONS STATION/POSITION TIME TEMP WIND PRES WAVE SWELL AIR SEA DIR/SP/G HT/PER HT/PER (UTC) (F) (DEG/KT/KT) (MB) (FT/S) (FT/S) CHESAPEAKE LIGHT 1500 73 40/ 6/ 6 1016.0 64 E VA BEACH 1450 75 76 40/ 6/ 8 1014.7 5/ 7 5/ 7 DUCK 1400 74 71 30/ 8/ 9 1014.2 2 E DUCK 1411 73 N/A 3/ 7 OREGON INLET 1400 74 81 10/ 3/ 4 1015.1 13E OREGON INLT 1500 73 N/A 4/ 7 HATTERAS CG 1400 79 78 240/ 8/ 12 1015.0 DIAMOND BUOY 1450 76 82 260/ 16/ 19 1015.3 5/ 7 3/ 7 CAPE LOOKOUT 1500 79 250/ 20/ 21 1015.8 BEAUFORT LAB 1400 78 80 270/ 5/ 10 1015.3 30 SE NEW RVR IN 1408 79 80 280/ 14/ 17 1016.4 27 SE WRIGHTSVLE 1400 80 270/ 8/ 12 N/A 5 SE WRIGHTSVLE 1408 75 79 250/ 2/ 6 1015.7 225 S CAPE HAT 1450 79 80 290/ 16/ 19 1019.5 7/ 7 3/ 9 41 SE CHARLESTON 1450 81 81 250/ 17/ 21 1016.4 5/ 5 2/ 8 $$

USA.gov is the U.S. government's official web portal to all federal, state and local government web resources and services.